Theta_e
310 309 311 312 312 312 313 313 314 325 332 330 328 328 330 331 331 333 334 334 334 333 332 331 330 328 328 327 326 325 325 323 325 322 321 322 324 324 324 326 326 327 330
305 308 309 310 310 312 312 312 314 324 331 333 330 330 330 331 331 333 334 335 334 334 332 330 328 328 326 326 325 326 321 322 323 319 317 315 319 323 324 323 325 326 329
304 307 309 308 309 309 312 314 314 324 328 330 328 327 327 327 326 329 330 333 334 334 332 330 329 327 327 326 325 324 322 319 320 321 318 312 311 316 322 322 324 325 326
305 306 306 307 309 309 311 315 320 327 330 330 327 328 325 324 325 328 329 330 332 331 329 329 328 327 327 325 324 323 321 320 317 319 319 319 318 314 313 318 321 324 324
302 303 305 306 307 307 312 323 327 330 330 329 330 328 324 323 327 327 327 327 328 329 329 328 328 327 325 324 323 323 321 320 319 318 317 317 318 318 316 312 315 321 323
301 302 304 309 314 325 329 331 329 327 328 329 326 326 324 325 325 324 325 325 324 326 328 329 327 326 324 323 323 323 323 321 321 319 319 318 317 316 317 314 312 314 320
301 301 303 317 324 329 330 331 329 325 325 326 325 325 325 325 325 325 323 323 322 322 324 326 324 323 324 324 324 323 323 322 321 321 319 320 319 320 321 316 313 315 319
299 305 316 322 328 328 330 328 326 324 324 325 324 324 325 325 325 324 324 323 323 324 324 325 325 324 324 324 324 324 324 324 323 322 321 321 320 319 321 318 317 314 316
299 314 322 326 328 328 326 325 324 322 323 323 323 323 323 323 323 322 323 322 323 324 324 325 324 323 325 325 325 324 324 324 324 323 323 321 321 321 320 322 321 319 313
314 320 322 325 323 323 323 323 323 322 322 323 323 323 323 323 323 323 322 323 323 324 323 323 324 325 326 326 326 325 325 324 324 324 322 321 322 321 320 321 320 321 318
318 321 322 324 321 322 322 322 322 322 322 323 323 323 322 323 323 323 322 323 322 322 323 324 325 326 326 325 324 325 325 324 323 324 323 323 323 322 321 320 321 321 320
319 321 322 323 321 321 322 321 322 322 322 323 323 322 322 322 321 322 322 321 321 323 324 325 326 327 326 325 324 323 325 324 322 323 322 322 322 322 323 322 321 321 322
318 321 322 321 321 320 321 322 322 322 323 323 321 321 320 320 320 321 322 321 322 323 324 323 324 326 326 325 325 324 325 323 322 322 322 322 322 322 322 322 321 322 322
320 321 322 320 321 321 322 322 321 322 322 322 321 320 320 320 321 322 321 320 321 321 323 324 327 326 325 324 325 327 326 323 322 323 322 321 324 322 323 322 321 322 322
320 320 320 320 320 320 321 322 322 322 322 322 321 320 320 321 321 321 320 320 321 323 326 327 324 323 321 316 320 326 324 322 322 324 323 324 325 321 321 322 322 322 320
319 320 321 321 320 321 321 321 321 321 322 322 321 323 324 321 321 321 320 321 323 326 326 323 322 320 317 302 309 319 324 323 323 323 324 323 319 317 313 315 315 320 319
320 320 321 322 322 321 322 320 320 321 322 324 325 325 323 321 321 321 321 319 322 325 324 320 319 318 317 300 307 310 323 324 323 322 322 321 319 319 318 310 310 310 310
320 320 321 322 322 321 320 320 319 321 323 324 325 324 323 321 321 320 319 321 324 324 322 318 317 318 314 302 303 308 325 325 323 321 321 319 319 318 319 320 319 319 320
320 321 322 321 320 320 319 319 318 321 324 325 324 324 322 321 320 319 317 319 321 320 319 318 317 319 317 301 303 317 324 322 321 322 321 321 319 304 306 318 316 315 313
319 320 321 320 319 318 318 318 318 320 322 325 324 324 322 320 320 318 318 320 320 320 320 317 318 312 318 301 302 316 324 320 319 318 316 306 312 301 304 318 317 314 315
319 320 320 320 320 316 318 317 318 319 323 326 325 323 321 320 321 319 321 321 321 321 319 317 318 319 316 311 301 307 323 321 319 317 316 311 300 300 302 308 318 314 317
319 321 320 318 317 317 318 316 318 321 323 326 323 321 320 322 322 320 321 322 321 319 317 316 316 317 318 305 300 304 309 312 320 318 316 305 297 298 299 308 299 301 311
319 321 321 317 315 317 319 316 318 320 322 322 321 320 321 322 321 321 320 320 321 319 317 318 317 316 319 314 299 298 300 306 319 319 305 296 295 296 298 297 298 305 318
320 320 318 316 314 317 317 319 316 320 321 320 320 320 320 320 321 322 322 321 319 319 317 317 317 318 319 317 314 311 311 304 308 303 306 303 303 304 303 308 313 318 319
319 318 317 317 316 316 316 315 317 321 320 320 320 320 320 321 320 319 319 321 321 319 320 319 318 317 319 318 311 312 318 318 311 311 315 317 315 313 315 317 318 317 317
317 317 317 316 316 316 315 314 319 321 320 319 320 320 320 320 320 317 312 296 301 303 304 302 313 318 305 297 297 297 297 298 301 317 317 317 316 315 316 316 317 318 314
Wind_Speed
15 9 10 11 10 10 10 10 6 7 9 6 6 3 6 5 5 6 10 11 10 12 10 5 6 7 8 6 4 2 4 4 3 1 2 2 5 4 3 3 4 4 4
9 11 11 10 9 12 11 9 8 7 7 6 4 4 5 3 4 5 7 10 9 10 10 8 7 7 5 5 5 6 3 2 4 2 0 2 1 2 3 2 3 4 2
13 14 14 10 10 10 11 9 7 9 7 7 7 5 6 4 3 4 5 6 10 9 8 8 7 6 5 5 4 6 7 3 2 4 2 1 2 0 1 2 1 3 2
14 13 10 12 13 13 7 7 6 9 10 12 9 11 5 6 4 4 4 5 7 7 7 7 6 6 4 4 4 4 3 3 3 2 3 1 1 1 1 2 2 2 2
12 12 14 14 11 8 7 3 7 8 10 9 10 9 6 4 6 6 10 6 4 6 6 7 7 6 4 4 4 4 5 4 3 2 2 1 0 1 1 2 1 1 1
10 10 10 7 7 3 3 7 8 6 9 9 10 11 13 10 9 7 5 4 4 3 5 6 5 4 4 4 4 4 5 5 3 3 3 3 3 3 2 2 1 1 0
9 9 7 3 3 4 6 8 9 8 8 10 9 9 11 12 12 9 6 7 4 2 4 4 5 3 4 5 4 4 5 5 4 5 4 3 3 2 2 3 2 2 1
9 6 4 4 4 7 8 9 10 10 8 9 8 8 10 7 6 6 7 5 4 4 5 4 4 4 4 4 4 3 3 4 4 6 5 4 4 3 3 3 4 2 2
8 5 6 6 7 7 7 10 11 10 9 9 8 8 8 8 8 7 6 4 4 4 5 5 4 4 5 4 4 3 4 4 5 5 5 5 4 4 4 2 3 4 4
5 7 8 10 5 6 8 9 9 11 9 9 8 8 8 8 8 7 8 6 5 5 5 4 4 4 3 3 4 3 4 4 3 3 5 5 3 5 4 3 3 2 3
9 9 10 9 8 7 8 9 10 11 9 9 9 10 8 8 7 6 6 5 5 6 5 5 4 3 3 3 3 4 4 4 3 4 5 4 5 4 4 4 2 3 3
9 12 12 10 9 9 9 9 9 10 8 8 9 9 8 7 6 6 5 5 6 4 5 4 3 3 2 2 3 3 4 5 6 5 4 4 3 4 5 4 6 5 3
7 11 12 9 9 9 9 9 8 9 8 9 9 7 6 6 6 6 5 5 5 4 3 3 3 3 1 2 2 4 5 5 7 5 4 5 5 5 3 4 6 6 5
7 8 10 9 9 8 9 9 7 8 8 8 8 7 6 6 5 5 6 5 4 5 4 4 4 3 3 3 4 2 4 5 4 4 4 5 7 8 8 7 8 9 9
7 7 8 10 8 8 7 7 7 7 7 7 6 6 6 5 5 5 5 5 4 3 4 6 5 4 3 3 4 3 4 5 4 3 3 4 7 8 7 7 9 11 10
11 7 7 10 11 11 9 8 8 6 6 6 5 6 7 5 5 5 5 5 4 4 5 5 4 4 3 6 4 4 5 5 4 4 4 5 8 8 9 10 9 9 12
12 11 11 10 11 10 9 9 7 6 6 6 6 6 5 6 5 6 5 5 4 4 5 5 4 4 3 5 5 6 5 4 4 5 6 6 6 8 8 12 13 12 11
11 10 9 7 8 7 7 7 7 6 6 6 7 7 6 6 5 5 5 4 3 4 4 5 4 3 3 3 6 8 6 5 6 6 7 7 8 9 10 12 11 9 10
7 8 8 6 5 8 7 8 6 6 6 6 7 7 7 6 6 5 5 3 4 3 3 3 3 3 3 4 8 7 5 6 6 5 6 7 8 10 13 13 13 12 9
7 9 8 6 7 6 8 8 7 6 6 7 7 7 7 6 6 6 5 3 3 3 4 4 3 3 4 3 7 6 5 6 5 6 6 10 10 14 13 13 13 13 11
6 8 9 10 9 8 9 7 7 8 6 6 7 7 6 6 6 6 3 4 4 4 5 5 3 4 3 4 7 8 5 5 5 6 6 5 12 13 13 12 11 12 13
5 10 11 8 7 9 10 8 9 6 6 6 8 6 6 4 5 6 3 4 5 5 5 5 4 3 3 4 5 8 9 8 7 7 6 5 12 12 11 10 15 16 13
6 11 11 9 8 9 10 10 7 7 7 6 6 5 6 5 5 6 5 3 4 5 5 4 3 3 2 3 6 6 10 10 8 6 8 10 13 14 13 13 14 11 9
11 10 11 11 10 10 9 9 9 8 8 7 7 6 5 6 5 3 4 4 4 4 5 4 3 3 3 3 4 4 5 10 10 12 7 9 11 11 10 6 6 7 7
3 8 10 12 12 11 9 7 9 10 8 6 6 6 4 5 5 4 2 4 2 4 5 4 5 6 4 4 6 7 5 6 8 10 6 5 5 8 6 6 6 6 6
7 4 5 6 8 10 10 8 9 10 9 7 5 5 5 4 4 5 3 8 3 7 6 9 6 2 4 11 10 9 12 14 13 5 5 6 5 7 6 7 6 5 7
Wind_Direction
270 261 264 268 285 282 268 250 215 189 159 153 145 140 177 158 154 153 166 172 180 180 178 175 157 158 173 190 165 144 205 235 214 265 294 257 233 233 222 229 231 236 220
277 268 265 271 270 265 270 255 227 176 169 172 133 144 129 142 144 159 157 171 178 164 177 164 168 164 149 164 164 184 195 212 184 176 168 307 327 226 212 176 211 227 217
248 258 265 255 268 262 258 262 201 173 164 136 113 88 85 92 117 149 149 162 166 181 168 150 153 151 157 178 175 185 197 196 197 212 159 141 236 279 73 84 267 235 214
244 246 250 266 261 263 269 254 185 164 151 148 139 154 137 156 183 139 133 139 150 149 137 141 144 158 157 167 187 174 168 161 183 198 212 112 140 163 82 31 359 264 206
232 244 243 250 269 280 261 215 155 147 147 145 144 151 133 115 127 129 133 117 131 125 143 148 146 152 150 181 177 165 182 185 165 168 146 162 345 92 100 102 356 50 354
247 251 255 269 279 318 178 175 130 120 134 138 139 142 139 134 127 117 119 112 97 115 137 133 140 148 164 174 188 181 186 191 186 175 184 163 165 205 156 126 138 144 340
253 254 251 224 219 203 175 140 126 121 121 127 126 138 127 130 134 140 136 137 131 130 160 138 153 158 181 188 177 183 201 190 193 191 201 191 187 158 161 123 122 124 112
257 252 171 164 162 153 140 115 117 114 114 113 111 110 115 123 128 135 142 137 132 146 150 160 171 178 178 195 193 195 209 198 207 204 202 199 190 186 163 147 134 120 112
260 165 140 141 135 129 120 128 116 107 106 112 117 108 112 120 125 112 111 121 129 146 160 163 151 172 197 200 184 208 224 207 202 206 203 203 197 184 181 174 153 149 147
130 147 146 142 106 101 104 98 108 115 119 113 113 116 117 112 116 119 130 141 138 135 136 142 169 189 208 205 196 207 210 217 238 196 197 193 186 178 180 177 159 149 133
163 150 144 129 113 104 105 107 106 110 105 107 110 110 110 112 114 121 131 134 129 140 146 162 175 188 218 179 192 213 199 196 231 212 201 197 175 174 172 159 164 142 126
158 144 138 124 119 113 117 114 116 114 115 116 111 111 113 115 116 124 135 134 133 147 153 160 167 210 222 197 202 208 181 208 168 238 175 159 153 155 169 164 172 161 150
149 138 131 129 124 120 124 126 126 125 122 119 117 115 119 121 128 136 134 129 142 148 159 151 210 195 224 286 265 223 200 193 182 202 183 153 148 152 158 139 144 138 126
155 159 129 128 128 128 134 135 127 133 129 129 130 136 142 142 137 138 131 140 147 152 192 190 132 118 76 1 332 277 181 164 156 156 169 162 166 164 153 137 137 133 122
156 164 146 135 131 129 132 136 139 138 140 137 139 137 132 135 133 132 140 143 147 177 157 128 104 85 57 22 353 60 111 126 114 96 139 158 145 144 140 144 146 138 127
161 158 164 149 151 151 152 147 152 144 139 127 135 145 150 141 145 136 146 144 157 155 134 108 111 85 58 337 44 109 112 118 126 132 120 116 117 116 122 126 130 139 140
171 161 166 173 159 158 155 159 153 135 133 137 145 138 134 147 153 140 134 130 157 149 122 112 106 87 64 5 99 108 107 103 103 101 109 102 108 113 112 97 92 84 95
172 157 155 170 160 148 146 138 130 142 147 153 145 139 147 146 146 139 126 121 115 139 122 114 110 97 44 38 106 108 113 92 87 94 103 110 120 124 122 118 111 108 106
155 158 147 155 148 155 147 140 130 145 156 153 150 150 153 146 149 145 137 130 126 139 126 124 123 105 71 80 118 111 99 96 89 90 97 112 121 131 115 112 111 101 86
140 150 144 141 150 158 139 138 143 155 170 162 158 152 150 152 153 148 150 142 145 149 118 114 105 104 108 97 124 112 106 101 90 82 83 89 121 119 119 121 122 117 119
174 137 146 166 169 143 141 148 147 184 179 148 142 148 156 156 144 144 155 143 139 130 120 110 109 97 87 119 139 120 108 113 101 101 98 104 114 115 116 119 123 123 125
151 166 160 164 148 151 147 154 179 170 150 148 143 158 148 141 130 129 119 131 135 127 127 121 113 95 90 96 142 131 110 119 114 114 108 106 104 100 96 109 124 122 123
202 179 169 158 149 161 162 167 188 153 146 141 142 141 133 125 132 135 141 127 136 136 142 136 135 116 105 100 108 118 117 112 109 115 107 109 99 94 92 111 118 123 127
191 165 157 163 164 169 165 183 149 155 146 146 145 141 143 128 130 136 143 120 149 136 147 147 143 142 129 118 121 117 99 91 93 104 109 96 89 96 110 113 113 130 137
149 151 178 171 174 166 160 147 152 150 151 150 149 141 135 141 136 96 105 143 180 160 160 170 164 161 158 168 147 141 140 129 121 116 125 114 107 124 127 126 128 127 129
44 97 141 145 154 157 149 146 154 152 144 146 148 159 149 151 142 136 133 44 60 159 153 155 153 150 134 138 136 128 124 125 133 122 131 123 127 138 145 152 150 151 153